Theta_e
321 323 323 322 322 322 321 320 321 322 322 319 318 318 316 316 316 315 314 312 311 311 309 309 309 308 308 308 309 308 308 308 311 311 311 311 307 306 306 305 306 305 305 305 305 305 305 304 304 303 303 303 302 303 302 302 302 303 302 303 303 303 303 302 303 302 302 302 302 302 302 302 302 302 302 301 301 301 300 304 311 315 316 315 314 315 315 315 316 317 318 318 318 317 316 315 316
321 321 321 321 321 322 322 321 321 321 319 316 317 318 315 315 316 316 316 313 312 310 308 308 308 308 308 307 307 308 309 308 309 309 308 307 306 306 305 305 305 305 305 305 305 305 304 304 304 303 303 303 303 303 303 303 303 303 303 303 303 303 303 303 303 303 303 303 302 302 302 302 302 302 302 302 301 300 302 311 316 316 315 314 314 314 315 315 315 315 316 316 317 317 316 315 315
320 320 321 321 321 321 323 321 320 319 317 314 315 317 313 315 316 315 314 312 311 308 308 308 308 309 308 308 308 309 310 309 307 307 307 307 307 307 305 305 305 305 305 305 305 304 304 304 303 303 303 303 303 303 303 303 303 303 303 303 303 303 303 303 303 303 303 303 303 302 302 302 302 302 302 302 301 302 309 316 316 315 314 314 314 314 315 316 315 315 315 315 315 315 315 314 315
321 321 321 321 321 321 322 321 320 319 316 314 314 316 314 316 315 314 313 310 309 308 309 309 309 309 309 310 309 309 310 309 308 307 307 307 307 306 305 305 305 305 305 304 304 304 304 304 304 303 303 303 303 303 303 303 303 303 303 303 303 303 303 303 303 303 303 303 303 302 302 302 302 302 302 301 301 307 314 316 316 316 315 314 314 314 314 314 314 314 315 315 315 315 315 313 313
320 321 320 321 322 321 321 320 320 319 317 315 315 316 314 314 313 314 312 309 308 308 309 309 310 309 308 310 309 310 310 308 308 307 307 307 306 306 305 305 304 304 305 304 304 304 304 304 304 303 303 303 303 303 303 303 304 304 304 303 303 304 303 303 303 303 303 303 302 302 302 302 302 302 301 301 305 312 314 315 316 316 315 314 314 314 314 313 314 315 316 316 316 315 315 315 313
320 321 320 320 320 319 319 318 319 319 318 318 318 316 313 312 313 313 311 308 308 307 308 308 309 308 309 309 308 309 309 308 308 307 307 306 307 306 306 305 304 304 304 304 304 304 304 304 304 303 304 303 304 304 304 304 304 304 304 304 304 303 303 303 303 303 303 303 303 302 302 302 302 302 301 302 309 313 314 314 316 316 314 314 315 315 314 314 315 316 316 316 316 316 315 316 315
320 321 319 319 318 318 320 319 319 320 317 315 317 315 312 311 311 312 311 309 308 307 307 308 307 308 309 309 308 309 308 308 308 307 307 307 307 306 306 305 304 304 304 304 304 304 304 304 304 304 304 304 304 304 304 304 304 304 304 304 304 304 303 303 303 303 303 303 303 302 302 302 302 301 301 304 310 313 313 314 315 316 314 313 314 315 314 314 315 316 316 316 316 316 316 316 316
320 320 318 319 319 318 319 319 319 319 314 311 313 312 311 311 310 311 312 310 309 307 307 307 306 308 309 307 308 309 308 308 308 307 307 307 307 306 306 305 304 304 304 304 303 304 304 303 304 304 304 304 304 304 304 304 304 305 305 305 305 304 304 303 303 303 303 303 303 302 302 301 302 301 301 304 309 312 313 314 314 315 313 313 313 313 314 314 315 316 316 316 316 316 316 316 317
318 319 318 319 319 318 318 318 317 317 313 310 311 310 310 309 309 311 311 309 307 307 307 306 306 308 308 307 308 309 307 307 307 307 307 307 307 306 306 304 304 304 304 304 303 304 304 304 304 304 304 304 304 304 304 304 305 306 306 306 305 305 304 303 303 303 303 303 303 302 302 301 302 301 301 304 308 311 312 314 314 313 312 313 313 312 312 314 315 315 315 316 316 316 316 317 317
318 318 318 319 318 317 317 317 317 315 313 310 310 310 308 308 309 310 311 310 307 307 307 306 306 307 308 308 309 308 307 307 307 307 307 307 306 306 305 304 304 304 304 304 303 304 303 304 304 304 304 304 304 304 305 305 306 306 306 306 306 305 304 303 303 303 303 303 303 302 302 301 302 301 301 303 307 311 312 314 313 312 311 311 314 313 311 313 315 314 314 315 315 316 316 317 317
319 317 317 318 316 316 316 317 318 315 312 309 310 309 307 308 309 309 308 308 307 307 306 305 307 307 307 308 309 308 307 308 307 307 307 307 306 306 305 305 305 304 304 304 304 304 304 304 304 304 304 304 304 305 306 306 306 307 306 306 306 305 304 303 303 303 303 303 303 302 302 302 301 301 301 302 306 310 313 314 313 312 311 309 313 313 311 313 314 314 314 313 315 316 316 316 316
319 318 317 318 316 316 315 316 317 315 313 310 310 308 306 308 309 309 308 308 307 307 306 306 307 307 308 309 309 307 307 307 307 307 307 307 306 305 305 305 305 304 304 304 304 304 304 304 304 304 304 304 305 306 306 306 307 306 306 306 306 306 304 304 303 303 303 303 303 302 302 301 302 301 300 302 305 310 313 314 312 311 311 311 311 312 311 312 313 314 314 314 314 315 316 316 315
319 318 318 317 314 315 314 314 314 314 314 312 309 306 306 308 309 310 309 308 308 307 307 306 306 306 308 309 308 307 307 307 307 307 307 306 306 305 305 305 305 305 305 304 304 304 304 304 304 304 304 305 306 306 307 307 307 306 306 306 306 306 304 304 303 303 303 303 303 303 302 301 302 301 301 301 305 312 314 312 311 312 313 313 311 311 312 312 313 312 313 314 314 315 315 315 314
318 317 318 316 311 313 314 315 314 313 313 310 307 305 306 307 308 309 308 308 308 307 307 306 305 306 308 309 309 308 307 306 306 306 306 306 306 305 306 305 305 305 305 305 305 304 304 304 304 304 305 306 306 307 307 307 307 306 306 306 306 305 305 304 304 303 303 303 303 303 302 302 301 301 301 301 305 312 313 311 312 314 313 312 309 310 311 311 311 310 311 313 313 314 313 313 312
316 315 317 316 313 314 314 314 313 312 312 309 305 304 305 306 306 307 307 308 308 306 306 306 305 307 309 309 309 308 307 306 306 306 306 306 306 306 306 305 305 305 305 305 305 305 305 305 304 304 305 306 307 307 307 306 306 306 306 306 306 305 305 305 305 304 303 303 303 303 302 302 301 301 301 300 305 313 314 311 313 315 312 311 310 309 310 311 311 312 312 313 312 312 312 312 312
315 315 317 317 315 314 314 312 311 312 311 307 304 304 305 306 305 306 306 307 307 306 306 306 306 307 308 308 308 307 307 307 306 306 306 306 306 306 306 305 305 305 305 305 305 305 305 305 305 305 306 306 307 307 307 306 306 306 306 306 305 305 305 305 305 304 304 303 303 303 302 302 301 301 301 300 304 312 314 313 314 316 312 312 313 309 310 310 311 314 313 312 311 312 313 313 313
314 315 317 316 315 314 314 313 311 312 310 307 304 303 307 307 305 305 305 305 306 306 305 306 306 306 307 307 307 307 307 307 307 306 306 306 307 306 306 306 305 305 305 305 306 306 305 305 305 306 306 306 306 306 306 306 306 306 306 306 305 305 305 305 305 305 304 304 303 303 303 302 302 301 302 300 303 311 315 314 315 315 313 313 313 310 311 310 310 312 312 311 312 313 313 313 313
314 316 316 315 315 314 313 313 311 310 310 308 305 304 306 307 306 305 305 306 305 305 305 305 306 306 306 307 307 307 307 307 307 306 306 307 307 307 306 306 305 305 305 306 306 306 306 305 306 306 306 306 306 306 306 306 306 306 306 306 305 305 305 305 305 305 305 304 304 303 303 303 302 301 301 301 301 308 314 314 314 315 312 310 311 313 314 312 310 310 310 311 312 313 313 313 313
314 316 315 316 316 312 310 310 309 309 310 308 305 304 305 306 306 305 306 307 306 306 307 306 305 306 306 307 306 306 306 306 306 306 306 307 307 307 306 306 305 305 306 306 306 307 306 306 306 306 306 306 306 306 306 306 306 306 306 306 305 305 305 305 305 305 305 305 305 304 303 302 302 301 301 301 300 305 312 314 314 314 311 309 312 314 316 314 310 310 310 310 312 312 312 313 312
313 314 315 316 314 310 306 306 306 306 307 307 306 304 303 305 305 305 307 308 307 307 309 308 306 307 307 307 307 307 306 306 306 306 307 307 307 306 306 306 305 305 306 306 306 307 307 306 306 306 306 306 306 306 306 306 306 306 306 306 306 305 305 305 305 305 305 305 305 304 304 303 303 302 301 301 301 302 308 312 313 314 312 310 313 315 316 316 310 310 310 309 311 312 312 313 313
311 313 314 312 309 309 307 304 304 304 305 306 306 304 304 305 304 305 306 308 309 309 309 309 308 308 307 308 307 307 307 307 307 307 307 307 307 306 306 306 306 306 306 306 306 307 307 306 306 306 306 306 306 306 306 306 306 306 306 306 306 305 305 305 305 305 305 305 305 305 305 304 303 303 302 301 301 301 304 310 313 314 312 311 314 315 317 317 310 309 310 310 311 311 312 313 313
311 309 308 307 306 308 307 303 304 304 304 305 304 305 306 305 304 305 306 307 310 309 308 307 307 307 307 307 307 308 307 307 307 307 307 307 307 306 306 306 306 306 306 306 307 307 307 307 306 306 306 306 306 306 306 306 306 306 306 306 306 305 305 305 305 305 305 305 305 305 305 305 304 303 302 302 301 301 302 307 312 314 313 311 314 316 317 317 311 308 310 310 311 311 312 312 313
311 308 304 304 304 306 305 303 304 303 303 305 305 306 305 305 306 305 305 307 308 308 307 307 307 307 307 307 307 307 308 307 307 306 306 307 307 306 306 306 307 307 307 306 307 307 307 307 306 306 306 306 306 306 306 306 306 306 306 306 305 305 305 305 305 305 305 305 305 305 306 305 305 304 303 302 301 301 301 303 310 314 313 311 314 316 317 317 312 310 310 310 311 311 312 312 314
310 309 305 304 303 304 305 303 303 303 303 305 304 305 305 306 307 304 304 307 307 307 307 307 307 307 306 306 307 307 307 307 306 306 307 307 307 307 307 307 307 307 307 307 307 307 307 307 306 306 306 306 306 306 306 306 306 306 306 306 305 305 305 305 305 305 305 305 305 305 305 305 306 305 304 303 302 302 301 301 306 312 313 311 313 316 316 317 316 315 313 312 311 311 312 313 313
309 308 305 303 303 303 304 303 304 304 304 304 303 305 306 305 305 303 305 307 307 307 307 306 306 306 306 306 306 307 307 307 306 306 306 307 307 307 307 307 307 307 307 307 307 307 307 306 306 306 306 306 306 306 306 306 306 306 306 305 305 305 305 305 305 305 305 305 305 305 305 305 305 305 305 304 302 302 301 300 302 308 313 312 313 315 316 317 318 318 317 316 314 313 313 314 315
307 306 304 304 304 303 304 304 304 304 304 304 305 306 306 305 304 306 308 308 308 308 307 307 307 306 307 306 306 306 306 307 306 306 307 307 307 308 307 307 307 307 307 307 307 307 306 306 306 306 306 306 306 306 306 306 306 306 305 305 305 305 305 305 305 305 305 305 305 305 305 305 305 305 305 305 303 302 302 301 300 304 310 313 313 314 316 316 318 319 319 319 319 318 318 319 320
304 304 304 304 304 303 304 304 304 304 304 304 306 307 307 304 305 309 310 309 308 308 307 307 308 308 308 307 306 306 306 307 306 306 307 307 307 308 307 307 308 307 307 307 307 307 307 306 306 306 306 306 306 306 306 306 306 306 305 305 305 305 305 305 305 305 305 305 305 305 305 305 305 305 305 305 304 303 302 301 300 301 305 311 313 313 315 316 317 318 319 319 320 320 320 321 322
304 304 305 304 304 304 304 305 304 305 305 304 305 306 307 304 305 310 311 309 309 308 308 308 308 309 308 308 307 307 307 306 306 306 307 307 307 308 308 308 308 308 307 307 307 307 307 306 306 307 306 307 307 307 306 306 306 306 305 305 305 305 305 305 305 305 305 305 305 305 305 305 305 305 305 305 305 304 303 302 301 300 301 306 312 314 314 315 316 317 318 319 320 321 320 320 320
303 304 305 305 305 305 305 305 304 305 306 305 304 308 311 308 307 310 310 309 309 308 309 309 309 309 308 308 308 307 307 306 306 306 307 307 307 308 308 308 308 308 308 307 307 307 307 307 307 307 307 307 307 307 306 306 306 306 305 305 305 305 305 305 305 305 304 305 305 305 305 305 305 305 305 305 305 305 304 303 302 301 300 301 307 313 315 315 316 317 318 318 319 321 321 320 320
304 304 306 307 307 307 306 305 305 305 306 305 305 311 315 312 309 310 309 308 309 309 309 308 308 308 308 308 307 307 307 306 306 307 307 308 308 308 308 308 308 308 308 308 307 307 307 307 307 307 307 307 307 307 307 306 306 306 305 305 305 305 305 305 305 305 304 304 305 305 305 305 305 305 305 305 305 305 305 304 303 302 301 300 302 308 313 315 316 316 317 318 319 320 321 321 320
306 306 307 309 309 309 306 305 306 307 307 305 306 311 315 314 312 310 309 309 308 309 309 308 307 307 307 307 307 307 307 306 306 307 307 308 308 308 308 308 308 308 308 308 308 308 307 307 307 307 307 307 307 307 306 306 306 306 305 305 305 305 305 305 305 305 305 305 305 305 305 305 305 305 305 306 306 305 305 304 304 303 302 302 300 302 307 312 315 316 316 317 318 319 320 320 320
307 308 310 310 309 310 308 305 305 307 307 306 308 312 315 315 313 310 309 309 308 309 309 308 308 307 307 307 307 307 307 306 307 307 308 308 308 308 308 308 308 308 308 308 308 308 307 307 307 308 308 307 307 307 306 306 306 306 306 305 305 305 305 305 305 305 305 305 305 305 305 305 305 305 305 306 306 306 306 305 305 304 303 302 302 301 301 305 311 315 316 316 317 318 318 318 319
309 309 312 312 311 311 310 306 304 305 306 307 309 311 314 315 311 308 308 308 307 309 310 309 309 308 307 307 307 307 307 307 307 307 308 308 308 308 309 309 309 309 309 308 308 308 307 307 308 308 307 307 307 307 306 306 306 306 306 306 306 305 306 306 305 305 305 305 305 305 305 305 305 305 305 305 306 306 306 306 305 305 304 303 303 302 300 301 303 308 312 314 315 317 317 318 318
310 310 311 312 311 311 311 309 305 304 306 308 309 309 312 314 312 309 308 308 308 309 311 311 310 310 309 308 308 308 307 307 307 307 308 308 308 309 309 309 309 309 309 308 308 308 307 307 308 308 307 307 307 306 306 306 306 306 306 306 306 305 306 306 306 305 305 305 305 305 305 305 305 305 305 305 305 306 306 306 306 305 305 304 303 303 302 301 301 302 304 306 309 313 316 317 318
312 311 311 312 310 311 312 311 308 306 307 309 310 310 312 313 313 313 311 309 309 309 310 311 311 311 311 310 309 308 308 308 308 308 308 309 309 309 309 309 309 309 309 308 308 308 307 307 307 307 307 307 307 306 306 306 306 306 306 305 305 305 306 306 306 306 306 306 306 306 305 305 305 305 305 305 305 305 305 305 306 306 305 305 304 304 303 303 302 302 301 301 302 305 309 311 315
316 315 313 313 313 312 312 310 306 305 308 310 311 312 313 313 314 314 313 310 308 309 308 309 310 311 312 312 311 310 309 308 308 308 308 308 309 309 309 309 309 309 308 308 308 308 307 308 308 307 307 307 307 307 306 306 306 306 306 305 305 305 305 305 306 306 306 306 306 306 306 306 305 305 305 305 305 305 305 305 305 306 306 305 305 305 305 304 304 303 302 302 301 301 302 303 306
314 315 314 314 314 314 313 309 305 304 308 312 311 311 311 311 312 313 313 310 308 309 308 308 309 310 311 312 312 312 310 309 308 308 308 308 309 309 309 309 309 308 308 308 308 308 307 308 308 307 307 307 307 307 306 306 306 306 306 305 305 305 305 306 306 306 306 306 307 307 307 306 306 305 305 304 304 304 304 304 304 305 305 305 305 305 305 305 304 304 304 304 303 303 302 302 302
312 313 314 315 314 314 312 308 306 304 308 312 310 309 311 312 313 314 313 310 310 310 310 310 310 310 310 311 311 312 311 310 308 308 308 308 309 309 309 309 309 308 308 308 308 308 308 308 308 308 307 307 307 307 306 306 306 306 306 306 306 306 306 306 306 306 307 307 307 307 307 307 306 306 305 305 304 304 304 304 304 304 304 305 305 305 305 305 304 304 304 304 304 304 304 304 304
312 313 314 315 314 313 311 307 305 304 309 313 310 309 312 313 313 314 313 311 311 310 310 310 309 309 310 311 311 311 311 310 309 308 308 308 309 309 309 309 309 308 308 308 308 308 308 308 308 308 307 307 307 307 306 306 306 306 306 306 306 306 306 306 307 307 307 307 307 307 307 307 306 306 306 305 305 304 304 304 304 304 304 304 304 304 305 305 305 305 305 305 304 304 304 305 305
312 313 314 315 313 313 313 310 305 305 307 310 309 309 312 313 313 312 310 308 308 308 308 308 308 308 309 310 311 311 311 310 309 308 308 309 309 309 309 309 309 308 308 308 308 308 308 308 308 308 307 307 307 307 306 306 306 306 307 307 307 307 307 307 307 307 307 307 306 307 307 306 306 306 306 306 305 305 305 304 304 304 304 303 303 303 304 304 305 305 305 305 304 304 304 304 305
313 313 314 314 312 311 312 311 308 307 306 305 308 312 314 316 315 314 310 307 308 308 307 308 308 308 308 309 311 311 310 311 309 309 308 309 309 309 309 309 309 309 308 308 308 308 308 307 308 307 307 307 307 307 307 306 307 307 307 307 307 307 307 307 307 307 306 306 306 306 306 306 306 306 306 306 305 305 305 305 304 304 304 304 303 303 303 303 303 304 304 304 304 304 304 304 304
314 311 310 310 309 309 310 310 310 312 312 306 307 314 316 317 318 316 312 310 311 310 309 310 309 308 308 308 310 311 311 310 309 308 309 309 309 309 309 308 308 308 308 308 308 308 307 307 307 307 307 307 307 307 306 307 307 307 307 307 308 307 306 306 306 306 306 306 306 306 306 306 306 306 305 305 305 305 305 305 305 304 304 304 304 303 303 303 303 303 303 303 304 304 303 303 303
314 310 306 305 307 308 309 310 312 315 315 307 305 313 316 317 319 317 313 311 312 311 311 311 310 308 308 309 310 311 311 310 309 309 309 309 309 309 308 308 308 308 308 308 307 307 307 307 307 307 307 307 307 307 306 307 307 307 307 307 307 307 306 306 306 306 306 306 306 306 305 305 305 305 305 305 305 305 305 304 304 304 304 304 304 303 303 303 303 303 303 303 303 303 303 303 303
314 306 303 305 306 309 308 309 312 313 312 309 307 311 314 315 317 315 310 311 313 312 311 311 310 309 308 309 310 310 310 310 309 309 309 309 309 309 308 308 308 308 308 307 307 307 307 307 307 307 307 307 307 307 307 307 307 307 307 307 307 307 307 307 307 306 306 305 305 305 305 304 304 304 304 304 304 304 304 304 304 304 304 304 304 303 303 303 303 303 303 303 302 303 303 303 303
311 302 303 305 305 308 307 308 312 309 310 314 310 309 313 315 316 314 310 312 314 314 313 311 311 310 308 309 310 310 310 309 309 309 309 309 309 309 308 308 308 308 308 308 307 307 307 307 308 307 307 307 307 307 307 307 307 307 307 307 307 307 307 307 306 306 305 305 305 305 304 304 304 304 303 303 303 304 303 303 303 303 303 303 303 303 303 303 303 303 303 303 303 302 302 302 302
306 301 304 305 304 306 306 308 311 310 312 316 311 307 312 315 316 315 312 313 315 315 314 312 311 310 309 309 309 309 309 309 309 309 308 309 309 309 309 308 308 308 308 308 308 308 308 308 308 307 307 307 307 307 307 307 307 307 307 307 307 307 307 306 306 305 305 305 305 305 305 304 304 304 304 304 304 304 304 304 304 303 303 303 303 302 302 302 302 302 302 302 302 302 302 302 302
304 305 307 308 306 305 306 307 309 312 314 314 308 306 310 313 316 318 316 315 316 315 313 311 310 309 308 309 309 309 309 309 308 309 308 309 308 308 309 308 308 308 308 308 308 308 308 308 308 308 307 307 307 307 307 307 307 307 307 307 307 307 307 306 305 305 305 305 305 305 305 305 304 304 304 304 304 304 304 304 304 304 304 303 303 303 303 302 302 301 301 301 301 301 301 301 301
304 307 309 312 311 308 310 310 310 314 315 311 307 305 308 312 315 317 316 314 313 313 313 312 310 310 309 309 309 309 309 309 309 309 308 308 308 308 308 308 308 308 309 308 308 308 308 308 307 307 307 307 307 307 307 307 307 307 307 307 307 307 306 305 306 306 306 306 306 306 305 305 305 305 305 304 304 304 304 304 304 304 304 304 304 303 303 303 302 302 302 301 301 301 301 301 301
306 309 311 314 314 313 314 314 312 314 314 309 306 306 309 313 315 316 315 313 311 310 312 312 312 311 309 308 309 309 309 309 309 309 309 308 309 308 308 309 309 309 309 308 308 308 307 307 307 307 307 307 307 307 306 306 307 307 307 307 307 307 306 306 306 307 307 307 307 306 306 305 305 305 305 305 304 304 304 304 303 303 303 303 303 303 303 303 302 302 302 302 302 302 301 301 300
308 311 313 314 314 314 315 314 311 313 313 308 305 307 312 314 314 315 314 313 310 308 307 308 310 311 308 308 309 309 309 309 309 309 309 309 309 308 308 309 309 308 308 308 307 307 307 307 307 307 307 307 306 306 307 307 307 307 307 307 307 307 307 307 307 307 308 307 307 307 306 306 306 305 305 305 304 304 304 303 303 303 303 302 302 302 302 302 302 301 301 301 301 300 299 299 298
309 308 309 313 314 314 315 314 313 313 313 309 306 309 314 315 314 313 311 309 307 306 306 305 307 309 308 307 308 309 309 309 309 309 309 309 309 308 309 309 309 308 308 307 307 307 307 307 307 306 306 307 307 307 307 307 307 308 307 307 307 307 307 308 308 308 308 307 307 306 306 305 305 305 305 304 303 303 303 302 302 302 301 301 301 301 300 300 300 300 300 299 299 298 297 296 295
309 305 309 313 312 312 313 312 312 312 313 312 310 312 315 315 314 312 308 307 307 306 306 304 305 307 307 307 307 308 309 308 308 308 308 309 308 308 309 308 308 308 307 307 307 307 307 307 306 306 306 306 307 307 307 307 308 308 307 307 307 307 308 307 307 307 307 306 306 305 305 305 305 304 304 303 303 302 302 301 301 301 300 300 299 299 299 298 298 298 298 297 297 296 295 295 294
308 308 312 310 306 309 312 309 307 308 313 315 313 313 314 314 315 313 308 308 308 307 306 306 306 306 306 307 307 308 308 308 308 308 308 309 309 309 308 308 308 307 307 307 307 307 306 306 306 306 306 307 307 307 308 307 307 307 307 307 307 307 307 307 306 306 305 305 304 304 304 304 304 304 303 303 302 301 301 300 300 299 299 299 298 298 298 297 296 296 296 296 295 294 294 294 293
309 311 310 306 305 308 311 312 311 311 314 315 312 312 313 313 314 315 313 311 310 308 308 307 307 306 307 307 308 308 308 308 308 308 309 309 309 308 308 308 308 307 307 307 306 306 306 306 306 306 306 307 307 307 307 307 307 307 307 307 307 307 306 306 305 305 304 304 304 304 303 304 304 303 303 302 302 301 301 300 299 299 298 298 297 297 297 296 296 295 295 294 294 293 293 293 293
306 308 304 305 311 312 311 312 313 313 314 314 312 311 311 311 313 315 317 316 313 310 308 308 308 307 308 308 308 308 308 308 308 308 309 308 308 308 308 308 308 307 307 306 306 305 305 306 306 306 306 307 307 307 307 307 307 307 307 307 307 306 306 305 304 304 303 303 303 303 303 303 303 303 303 302 302 301 301 300 299 298 298 297 297 296 296 296 295 295 294 294 293 293 292 292 292
303 305 304 304 309 311 311 311 311 313 313 313 313 312 312 313 314 314 316 317 314 311 309 309 309 308 308 308 308 308 308 308 309 308 308 308 308 308 308 308 307 307 306 305 305 305 305 306 306 306 306 306 307 307 307 307 306 306 306 306 306 306 305 304 304 303 303 302 302 303 302 302 302 302 302 302 302 301 301 300 299 298 297 297 296 296 295 295 295 294 294 293 293 292 292 291 291
306 308 308 307 307 307 309 309 308 311 313 312 312 313 314 315 315 314 315 315 314 312 311 311 311 309 309 308 308 309 309 308 309 309 308 308 308 308 307 307 307 306 306 305 305 305 305 305 306 306 306 306 307 307 306 306 306 306 306 306 305 305 304 304 303 303 302 302 302 302 302 301 301 301 301 301 301 300 300 299 298 298 297 297 296 295 295 294 294 293 293 292 292 291 291 290 289
306 309 310 310 309 309 311 311 308 307 310 310 311 312 314 317 316 315 314 314 312 311 311 312 312 310 309 309 309 309 309 309 309 308 308 307 307 307 307 306 306 305 305 305 305 305 305 305 305 305 306 306 306 306 306 306 306 306 305 305 305 304 304 303 302 302 301 301 301 301 300 300 300 300 300 300 300 299 299 298 297 297 297 296 296 295 294 293 292 292 291 291 291 290 290 289 288
Wind_Speed
8 8 7 6 4 3 2 2 2 1 1 1 0 1 1 1 1 2 3 3 1 3 6 2 5 7 4 2 3 6 7 6 3 3 1 2 4 6 7 6 5 5 5 5 5 5 6 6 7 7 7 7 8 9 10 10 11 11 12 13 13 13 13 14 14 15 16 16 17 18 19 20 21 21 22 22 22 22 24 25 24 24 24 25 25 25 24 24 24 23 24 24 23 24 25 25 24
9 8 7 6 4 4 3 3 3 1 2 2 2 0 2 3 2 2 2 3 1 3 7 5 5 7 7 6 6 7 8 9 7 6 5 6 6 7 7 6 5 5 5 5 5 5 5 6 7 7 7 7 8 9 10 11 12 13 13 14 14 14 14 14 15 15 16 16 17 18 19 20 21 21 21 22 22 23 25 24 23 23 23 24 24 24 23 24 24 24 25 25 24 23 25 25 24
10 8 7 5 4 4 3 2 2 1 3 2 2 2 2 2 2 1 2 2 3 6 8 6 6 6 7 7 6 6 4 4 7 8 8 6 2 5 7 6 5 5 5 5 5 5 5 6 7 7 8 8 9 10 12 13 13 14 14 15 15 15 15 15 15 15 16 16 17 18 19 20 21 21 21 22 23 24 24 22 22 23 23 22 23 23 22 23 22 21 22 22 21 21 25 27 25
10 8 8 5 3 3 2 2 2 2 2 1 1 3 3 2 1 3 4 4 5 7 6 5 5 5 7 6 4 5 6 5 6 5 4 3 3 4 6 6 6 6 6 6 5 5 6 7 8 8 9 10 11 12 13 14 15 15 16 16 17 16 16 15 15 15 16 17 18 19 20 20 21 21 21 22 23 25 24 22 22 23 23 22 23 23 22 23 19 17 17 17 18 17 20 26 27
10 8 8 6 4 1 0 1 0 3 1 0 0 3 3 2 3 4 5 5 6 6 5 5 3 3 7 8 4 3 3 2 4 4 3 5 4 4 6 7 7 6 6 6 6 6 7 8 9 10 11 11 12 13 15 15 16 17 17 17 17 17 16 16 16 16 16 17 18 19 20 20 21 21 22 23 24 25 25 23 23 23 23 22 23 23 22 20 17 16 16 17 18 17 17 21 24
9 8 7 5 3 1 1 1 2 3 1 1 1 3 2 2 4 5 6 5 5 6 6 6 4 3 5 8 9 7 4 2 3 4 4 6 5 4 6 7 7 6 6 6 6 7 8 9 9 11 12 13 14 15 16 16 17 18 18 18 17 17 16 16 16 16 16 17 18 20 20 20 20 21 22 23 25 26 26 25 24 24 24 22 23 23 21 19 16 17 17 18 19 18 18 17 19
10 8 5 4 2 0 2 2 2 2 1 1 2 3 3 3 5 6 6 5 5 6 7 8 5 4 4 5 8 8 8 7 6 6 6 6 5 4 6 7 7 6 5 5 6 7 7 9 10 11 13 14 16 17 17 17 17 18 18 17 17 16 16 16 16 16 16 17 18 20 20 20 20 21 22 24 27 27 28 27 25 24 24 22 22 23 22 20 18 18 18 18 19 19 18 17 17
11 6 3 3 0 1 2 2 2 1 1 1 2 1 3 4 7 6 7 5 3 4 6 9 7 4 3 3 4 4 5 7 8 8 7 7 5 4 5 7 7 6 5 5 5 6 7 8 9 11 13 14 16 16 17 17 17 17 17 17 16 16 16 16 16 16 16 17 18 19 19 19 20 21 22 24 27 28 29 28 26 24 23 22 22 24 22 19 19 19 19 19 19 19 19 18 18
10 4 2 2 1 1 1 2 2 1 1 2 2 2 2 4 7 6 6 4 2 3 5 8 8 5 2 3 6 6 7 8 8 8 8 7 5 4 5 6 6 6 5 5 6 6 7 8 9 11 12 14 15 15 15 16 16 16 16 16 16 16 16 16 16 16 16 17 18 18 19 19 19 20 22 24 27 29 30 29 28 25 23 22 23 25 21 18 19 19 19 20 20 20 20 20 18
6 3 2 1 2 2 2 2 1 1 2 2 3 4 4 6 8 5 6 4 4 4 5 7 9 8 5 5 6 5 6 7 6 8 9 7 5 4 4 5 6 5 5 5 6 6 7 8 9 10 12 13 13 13 14 14 15 15 15 14 15 16 16 16 15 15 15 16 17 18 19 19 19 20 21 24 27 29 30 30 28 26 24 22 22 24 21 17 18 19 20 20 21 21 19 19 18
4 1 2 1 3 3 3 3 2 1 1 1 4 5 6 7 8 5 5 4 5 5 4 6 6 9 7 6 5 3 4 5 6 7 8 7 4 3 3 5 5 4 5 5 6 7 8 9 10 11 11 12 11 11 12 12 13 13 14 14 14 15 15 15 15 15 15 16 17 18 19 19 20 20 22 24 27 29 30 30 27 25 25 22 20 22 21 18 19 20 21 22 22 21 19 18 17
3 1 2 2 3 2 1 2 2 2 2 3 2 5 8 10 8 6 8 5 5 6 7 8 4 4 5 3 4 4 3 4 6 7 7 5 3 2 2 4 4 3 4 5 6 7 8 9 10 10 11 10 10 10 10 11 12 13 13 13 14 15 15 15 15 14 15 16 17 18 19 20 20 20 22 24 26 29 29 28 26 24 24 22 20 21 20 19 20 21 22 23 21 19 17 18 17
3 2 2 2 1 1 0 2 2 3 3 2 2 4 10 11 8 6 7 6 6 6 6 11 9 4 4 4 5 5 2 3 4 5 5 4 3 2 2 3 4 3 4 5 6 7 8 9 9 10 10 9 9 9 10 11 12 13 13 13 13 14 15 15 14 14 15 16 17 18 19 20 20 21 22 24 26 27 27 26 24 24 24 23 22 21 20 19 20 21 22 22 20 18 18 20 20
4 4 2 1 0 1 1 2 1 3 1 3 2 5 12 8 7 6 5 6 7 7 5 8 11 6 6 6 4 5 4 2 2 3 4 3 2 1 2 3 4 4 4 5 6 7 8 9 9 9 8 8 9 10 11 12 13 13 13 13 13 14 15 15 15 15 15 16 17 18 19 21 20 21 21 23 25 25 26 25 24 25 25 25 24 22 20 19 19 20 21 21 19 19 18 19 18
6 5 2 1 1 1 2 2 1 2 0 3 3 8 11 6 5 7 8 6 5 9 7 6 11 6 4 4 2 7 6 2 2 1 2 2 2 2 3 4 4 5 5 5 6 7 8 8 8 8 7 8 9 10 11 13 14 14 14 13 13 13 14 15 15 15 16 16 18 19 19 21 20 21 21 22 24 24 25 25 24 25 26 28 26 22 17 16 18 18 18 19 17 14 12 10 11
8 5 1 1 2 1 3 2 1 2 1 3 4 8 8 5 5 7 9 8 5 8 10 9 13 10 6 5 3 7 7 5 4 4 3 3 3 3 4 4 4 5 5 6 6 7 7 7 7 6 7 8 9 10 11 13 13 13 13 13 13 13 14 14 15 15 16 17 18 19 19 20 20 20 21 22 23 23 23 25 26 25 27 30 28 23 19 17 17 18 18 16 13 9 6 4 5
7 3 2 3 2 2 3 5 3 1 1 3 5 8 6 4 6 7 7 10 9 9 12 13 15 16 13 11 10 10 10 9 8 7 6 5 5 5 5 5 4 5 5 6 6 6 6 6 5 5 7 8 9 9 11 12 12 13 13 13 12 12 13 14 15 15 16 17 18 19 19 20 20 21 21 21 23 22 22 24 27 26 28 29 26 24 23 22 18 17 16 10 7 6 5 3 1
5 1 3 3 2 2 2 4 3 1 2 4 6 7 6 2 5 7 6 9 11 13 16 18 18 19 18 17 16 16 15 13 10 9 8 7 7 6 5 5 5 5 5 6 6 5 5 5 4 5 7 7 8 9 10 11 11 12 12 12 12 12 12 13 14 15 16 17 18 19 19 20 20 21 21 21 22 22 22 23 25 26 26 24 23 25 26 28 22 14 11 5 3 5 4 4 1
2 1 3 3 1 1 1 1 1 1 3 4 5 7 8 4 3 5 5 5 7 10 14 16 20 21 18 18 18 18 17 15 13 11 10 9 9 7 6 6 6 5 5 5 6 5 5 4 4 5 6 7 8 9 10 10 10 11 11 11 11 11 12 12 13 14 15 16 17 18 19 20 20 21 21 21 22 21 22 23 24 25 24 22 22 26 27 28 25 14 7 2 1 4 4 4 2
1 1 4 2 2 1 1 1 1 2 2 3 3 6 8 7 5 5 4 5 6 10 11 11 16 16 13 13 13 15 15 15 13 12 11 10 10 9 7 6 6 6 6 5 5 5 4 4 4 5 6 6 7 8 9 9 9 10 11 11 11 11 12 12 13 14 15 16 17 18 18 19 19 20 20 20 21 21 23 24 25 25 26 24 22 27 28 28 25 15 8 3 3 4 4 4 2
2 2 2 2 2 1 3 3 2 3 2 1 3 4 6 8 9 7 4 5 7 10 11 10 9 8 8 9 8 9 11 12 12 11 11 10 10 9 7 7 6 7 6 5 5 5 4 4 5 5 5 6 6 7 8 8 9 9 10 11 11 11 12 12 13 13 14 15 16 17 17 18 19 19 19 20 20 21 23 24 25 25 27 24 22 26 30 30 26 16 10 6 4 5 4 3 2
2 1 2 3 1 1 2 3 2 4 4 3 4 4 4 5 9 11 8 8 6 3 6 8 8 6 6 7 7 7 8 9 10 10 9 9 9 8 7 7 7 7 5 5 5 5 4 4 5 5 5 5 5 6 7 8 8 9 10 11 11 11 12 12 12 13 13 14 15 16 17 18 18 19 19 19 20 20 22 24 24 25 26 23 21 26 30 30 25 18 14 9 9 10 7 5 4
2 1 2 2 2 1 1 2 2 3 4 4 3 3 4 3 6 9 13 17 13 6 6 7 8 9 8 7 8 8 8 8 8 8 8 8 8 7 7 7 7 7 5 5 5 5 5 5 5 5 6 5 5 6 7 8 8 9 9 10 10 11 11 12 12 12 13 13 14 15 17 18 19 19 19 19 20 20 21 23 23 24 25 21 19 24 27 27 26 23 19 14 13 13 10 9 6
3 0 3 3 2 2 2 2 2 3 3 3 2 4 3 4 5 5 15 24 20 16 15 12 13 13 12 10 9 9 8 8 8 8 9 9 8 8 7 7 7 6 5 5 5 5 5 5 5 5 6 5 5 6 7 8 8 9 9 10 10 10 11 11 12 12 12 13 14 15 16 17 18 19 19 19 20 20 21 22 23 23 23 20 17 21 23 23 26 25 22 19 14 11 9 7 6
2 1 4 4 2 2 2 1 1 1 1 2 3 5 5 6 7 9 19 25 20 21 21 19 19 18 17 15 13 12 11 10 8 9 10 9 8 7 6 7 7 6 5 6 4 5 5 4 4 5 5 6 6 6 7 8 8 9 9 9 10 10 11 12 13 13 13 13 13 14 15 16 17 18 19 19 19 20 20 20 22 22 23 20 16 18 19 20 24 23 22 20 15 12 10 8 8
0 2 5 4 3 2 1 1 1 1 1 2 4 6 5 7 8 12 21 21 18 19 18 17 17 17 18 18 18 17 14 12 10 9 10 9 7 6 5 6 6 6 6 5 4 4 4 4 5 5 5 6 6 6 7 7 8 9 9 9 9 10 11 12 13 13 13 13 13 13 14 14 16 17 18 19 19 19 19 20 21 21 22 21 16 15 16 18 21 21 21 21 18 16 16 16 15
4 6 6 4 2 2 1 1 1 3 3 3 4 6 5 3 3 7 9 8 8 8 10 12 11 11 13 16 19 20 18 15 12 11 11 9 7 6 6 6 6 6 6 5 4 4 4 5 5 5 5 5 6 6 7 7 8 8 9 9 9 10 11 12 12 13 13 12 12 13 13 14 15 16 17 18 18 19 19 19 20 20 21 21 17 14 14 15 17 17 17 19 19 18 17 16 16
8 9 5 2 1 2 1 1 1 3 2 2 4 8 7 3 5 10 9 7 6 5 8 11 12 13 11 11 15 18 19 15 14 14 12 10 8 7 7 7 7 7 7 6 5 5 5 5 5 5 5 5 6 6 6 7 7 8 8 9 9 10 10 11 11 12 13 12 13 13 13 13 14 15 16 17 17 18 18 18 19 19 20 21 18 13 12 13 13 13 12 14 17 17 16 13 11
8 5 1 1 2 3 1 1 2 3 1 1 3 8 6 8 11 13 11 11 11 10 11 13 14 11 8 9 11 14 16 15 16 15 12 10 10 9 8 8 8 8 8 7 6 6 6 5 6 5 5 5 5 5 6 6 7 7 8 8 9 9 9 10 11 11 12 12 13 13 13 13 13 14 15 15 16 17 17 17 18 18 19 20 19 14 10 11 10 9 8 9 13 14 15 15 11
4 1 2 1 3 2 2 2 3 2 1 1 2 5 3 8 13 13 9 9 10 10 11 11 10 8 8 9 10 12 14 15 16 14 12 12 11 10 8 9 9 9 9 8 7 8 7 6 6 5 5 5 5 5 5 5 6 6 7 7 8 8 8 9 10 10 11 12 12 13 13 14 13 13 14 14 15 16 16 16 16 17 17 18 19 17 12 10 8 7 7 7 8 10 13 14 13
1 1 2 1 2 1 3 2 3 2 2 1 1 5 4 3 8 12 11 10 8 7 8 8 9 8 8 10 10 12 12 14 14 13 13 13 13 11 9 10 10 10 10 9 9 8 7 6 6 6 5 5 4 4 4 4 5 5 6 6 7 7 8 8 9 10 11 11 12 12 13 14 14 14 14 14 14 14 15 15 15 16 16 16 17 18 16 13 9 6 5 5 5 7 8 9 10
0 2 2 1 2 1 3 2 3 1 0 1 3 5 6 4 1 8 11 8 6 5 6 7 8 8 9 10 10 11 12 13 13 13 14 14 13 12 10 10 10 11 11 10 10 8 7 6 6 6 5 4 4 4 3 3 3 4 5 6 6 7 7 8 8 9 10 11 11 12 13 14 14 15 14 14 13 14 14 14 14 14 15 15 16 16 16 15 13 10 8 6 4 4 4 4 4
1 2 2 1 2 1 1 3 2 2 1 3 6 4 6 3 2 4 9 9 6 5 6 7 8 9 10 10 11 11 12 13 13 14 15 15 13 11 10 10 10 11 11 10 10 8 8 7 6 6 5 5 4 4 3 2 3 3 4 5 5 6 7 8 8 9 10 10 12 13 14 14 15 15 15 15 14 13 13 13 13 13 13 14 15 15 15 15 14 13 11 9 7 5 3 2 1
2 1 2 1 2 2 1 2 1 2 2 4 5 6 11 9 3 5 9 10 8 9 11 13 14 14 13 12 12 12 13 13 13 15 16 15 13 11 10 9 9 10 10 10 9 9 8 7 7 6 5 5 5 4 3 2 2 3 4 5 5 6 7 8 8 9 10 12 13 14 14 15 15 15 15 15 15 14 13 13 13 13 12 12 13 13 13 13 13 13 12 12 10 8 6 3 2
2 3 3 1 2 4 3 1 1 2 2 5 6 8 15 15 13 13 13 14 15 15 16 19 21 21 20 18 16 14 14 13 13 15 16 14 13 11 9 8 8 9 10 10 10 9 9 8 8 6 6 5 4 4 3 2 2 2 3 5 6 7 7 8 9 10 11 13 14 14 15 15 15 15 15 15 15 14 14 13 13 13 13 12 11 10 10 11 11 12 12 13 12 11 9 7 5
0 1 2 2 3 3 2 1 2 3 3 7 9 10 13 15 14 15 13 14 16 15 15 19 22 23 24 25 23 20 17 14 14 16 16 14 13 10 8 8 8 9 10 10 10 10 9 9 8 7 6 5 4 3 2 1 2 2 3 4 6 7 8 9 9 10 11 13 13 14 15 15 16 16 15 15 15 14 14 13 12 12 13 13 12 10 10 10 11 11 11 12 12 11 11 10 8
0 1 1 2 3 3 1 2 2 1 4 6 6 8 13 15 16 15 10 9 13 14 14 17 21 23 24 26 26 24 21 16 16 17 17 15 13 10 8 8 8 9 10 10 10 10 10 9 8 6 5 4 3 2 1 1 1 1 2 3 5 7 8 8 9 10 11 11 12 14 14 15 15 15 15 15 15 14 14 14 13 12 12 13 13 13 13 12 12 11 11 11 10 9 10 10 10
0 1 2 2 3 3 1 2 1 1 3 3 1 7 14 15 16 15 10 9 11 14 13 14 16 19 22 24 24 24 23 20 18 18 17 16 13 11 9 8 8 9 10 10 11 10 10 9 7 6 5 4 2 1 0 1 0 1 3 4 6 6 6 7 7 8 9 10 12 13 13 13 14 14 14 14 14 14 14 14 14 13 13 12 13 14 14 14 12 12 11 11 11 10 10 11 11
0 1 2 2 2 3 0 2 1 0 3 3 4 8 15 16 14 13 11 10 11 11 12 11 11 14 18 21 21 22 24 22 20 20 19 17 14 12 10 10 9 10 10 11 11 10 10 8 7 6 5 4 3 1 0 1 1 2 3 4 4 3 4 5 6 7 8 10 11 11 11 11 12 12 13 14 14 14 14 14 14 14 13 13 12 12 13 13 14 13 12 12 12 12 11 11 11
1 1 2 2 0 2 2 2 0 1 2 5 7 8 12 12 9 6 5 6 7 9 12 12 11 12 14 18 21 23 25 24 23 22 21 19 16 13 12 11 10 11 11 11 11 10 9 8 7 6 5 4 2 1 2 2 2 2 3 2 1 1 2 3 5 6 8 8 9 9 9 10 11 12 13 13 14 14 14 14 14 14 13 13 13 12 11 12 12 13 14 13 13 12 13 13 12
1 2 2 2 1 1 2 2 3 2 2 3 8 8 6 4 3 2 1 1 4 6 9 11 12 12 13 16 20 23 25 25 24 24 23 20 18 15 13 13 12 11 11 11 11 10 10 9 8 6 5 4 3 3 3 4 3 3 2 2 1 1 2 3 4 5 6 7 7 7 8 9 10 11 12 12 13 13 13 13 14 13 13 13 12 12 11 11 11 12 13 13 14 14 14 14 13
2 3 2 1 1 1 3 4 5 3 2 1 4 6 3 0 3 3 1 2 4 3 6 8 10 12 14 16 19 22 23 24 25 25 25 22 19 17 15 14 13 12 12 11 11 11 10 10 8 7 6 5 5 5 5 5 4 3 3 2 1 1 2 3 3 4 5 5 6 7 8 9 9 10 11 11 12 12 12 12 13 13 13 12 12 12 12 11 11 11 11 11 12 13 13 13 14
1 1 1 1 1 0 2 3 3 3 2 1 1 4 5 3 4 2 1 3 5 4 5 7 8 12 16 17 19 21 23 25 26 25 25 23 20 18 16 15 14 13 13 12 12 12 11 10 9 8 7 7 7 6 6 6 5 4 4 3 3 3 3 4 3 3 4 5 6 7 8 8 9 9 9 10 10 11 11 12 12 12 12 12 12 12 11 12 12 11 11 10 10 10 10 11 12
1 1 1 2 1 0 0 1 2 2 3 1 0 2 5 6 3 1 2 5 6 6 7 7 8 11 15 17 18 20 23 26 27 26 26 24 21 19 18 16 15 14 14 14 14 13 12 11 10 9 9 8 8 7 6 6 5 5 4 4 4 4 4 4 3 2 3 4 6 7 8 8 8 8 9 9 10 10 11 11 12 12 11 11 11 12 12 12 12 12 11 11 10 9 8 7 8
1 2 1 1 1 1 1 2 2 1 3 2 1 2 4 6 3 1 1 4 8 9 9 8 8 10 14 17 18 19 22 26 27 27 26 24 22 20 19 17 16 15 15 15 14 14 13 12 11 10 9 8 8 7 6 6 6 6 5 5 4 4 4 3 1 0 2 4 5 6 7 8 8 8 9 9 9 9 10 11 11 11 11 11 11 12 12 12 11 11 11 11 10 10 8 7 6
2 4 2 3 2 2 1 2 1 1 3 2 2 2 4 5 3 1 0 3 7 7 6 7 8 11 14 17 18 19 22 25 27 27 26 24 22 21 19 18 17 17 16 16 15 14 14 13 12 10 10 9 8 7 7 6 6 6 5 4 4 4 4 2 1 2 3 4 4 5 6 7 7 8 9 9 10 11 11 11 11 11 12 11 11 11 11 11 12 12 12 11 11 10 10 9 7
3 5 2 2 2 1 1 1 1 3 3 1 2 1 3 4 4 2 2 2 3 3 4 6 7 10 15 19 19 20 23 26 27 27 27 25 23 21 20 19 18 18 18 17 16 15 15 13 12 11 10 9 9 8 7 7 7 6 5 5 5 4 3 3 3 3 4 4 4 5 6 7 7 8 9 10 11 12 12 12 12 12 12 11 12 12 12 12 13 13 12 12 11 11 11 10 10
1 2 1 1 1 1 2 2 2 4 2 2 2 1 2 4 4 2 2 2 3 4 5 8 10 12 16 21 22 23 24 26 28 28 28 26 23 22 21 20 20 19 18 17 16 16 15 14 13 12 11 11 10 9 8 8 7 6 6 6 5 5 4 4 4 5 5 5 6 6 6 7 7 8 9 10 11 12 12 12 12 12 12 12 12 13 13 13 13 13 12 12 12 12 12 11 11
2 1 1 3 2 1 2 2 2 3 0 3 1 1 3 7 8 7 7 5 5 5 6 7 10 13 18 23 24 25 25 26 28 29 28 27 25 23 23 22 20 19 18 17 17 16 15 15 14 13 13 12 12 10 9 8 7 7 7 7 6 6 6 6 6 6 6 7 7 6 6 6 7 8 9 10 11 12 12 12 12 12 13 13 13 13 13 13 13 13 13 13 13 13 14 14 13
2 1 1 2 2 1 2 1 1 3 1 2 0 1 4 6 7 8 9 5 2 3 7 9 8 13 19 25 26 26 26 26 27 28 28 27 25 23 22 22 20 19 18 17 17 17 16 16 15 14 14 14 13 11 10 9 9 9 9 9 8 7 7 7 7 7 7 7 7 6 7 7 8 10 10 12 12 12 12 12 12 12 13 13 13 13 13 13 13 13 13 13 14 15 15 15 15
2 1 1 2 2 2 3 2 2 3 1 1 1 2 4 3 1 1 3 4 5 6 8 9 10 13 19 23 25 25 26 26 26 26 26 25 24 22 22 21 19 19 19 18 18 18 17 17 16 15 14 14 13 12 11 11 11 11 11 10 9 8 8 7 7 7 7 7 7 7 8 9 10 11 12 12 12 12 12 12 12 12 12 12 12 12 12 12 12 12 13 13 13 14 15 15 15
2 0 1 2 1 1 1 1 1 2 3 2 2 3 4 4 4 1 1 4 5 5 4 6 9 14 18 21 23 25 26 26 25 25 24 24 23 22 21 20 19 19 20 20 19 19 18 17 17 16 15 15 14 13 13 13 13 12 11 11 10 9 8 7 6 7 7 7 7 7 8 10 11 11 11 11 11 11 11 11 11 11 11 11 11 11 12 12 12 12 12 12 13 13 14 14 14
2 2 1 0 1 1 1 1 1 0 3 2 2 4 4 4 5 1 1 3 3 2 4 6 8 13 18 20 24 26 26 26 25 24 24 23 22 21 21 20 20 21 22 21 21 20 19 18 17 17 16 16 15 15 14 14 14 13 12 12 11 10 8 7 7 7 7 7 6 7 8 9 9 9 9 10 10 10 10 10 10 10 10 10 10 11 11 11 11 11 11 11 12 12 13 13 13
1 1 1 1 1 1 0 1 1 1 4 2 1 5 5 3 4 1 2 2 4 4 5 6 8 12 15 20 25 27 26 26 25 24 24 23 23 22 22 22 22 23 23 23 22 21 20 19 18 17 17 17 17 17 16 16 15 14 13 12 11 10 10 9 8 7 7 6 6 7 7 7 7 7 7 8 8 9 9 9 9 9 9 9 10 10 10 10 11 11 11 11 11 11 11 12 12
2 1 1 0 2 1 1 1 2 2 3 3 2 4 4 3 4 3 1 3 5 6 6 7 10 13 14 19 25 27 27 27 26 26 25 25 24 24 24 24 25 25 25 24 24 23 22 21 20 19 19 18 18 18 18 17 16 15 14 13 12 12 11 10 8 7 6 6 5 5 5 4 4 5 5 6 6 7 8 8 8 9 9 9 9 9 9 10 10 10 10 11 11 11 11 11 11
1 1 1 1 2 2 0 0 1 2 3 3 2 2 3 5 4 4 4 4 5 8 8 9 13 16 18 22 27 29 29 29 28 27 27 26 26 26 26 26 27 27 27 26 25 24 23 22 22 21 21 20 20 19 19 18 17 16 15 14 14 13 12 10 9 7 7 6 5 5 4 3 3 3 3 4 4 5 6 7 7 8 8 8 9 9 9 9 10 10 10 10 10 11 11 12 12
3 3 3 3 1 1 1 1 0 1 3 2 2 4 5 3 3 5 6 4 4 8 9 10 13 17 22 27 31 31 32 31 30 29 28 28 28 28 28 29 29 29 29 28 27 26 25 24 24 23 23 22 22 21 20 19 18 17 16 15 15 14 13 11 10 9 8 8 7 6 5 4 3 2 1 2 3 4 5 6 6 7 7 8 8 9 9 9 9 9 9 9 10 10 11 12 13
1 2 3 4 3 2 3 3 1 0 2 2 1 5 7 2 2 4 5 2 2 5 7 8 12 18 25 31 32 32 33 33 31 30 30 30 31 31 32 32 32 31 31 30 29 28 27 26 26 25 25 24 23 22 21 20 19 18 18 17 17 16 15 13 12 11 11 9 8 7 6 5 4 2 1 1 2 3 4 4 5 5 6 7 7 8 8 8 8 9 9 9 10 11 12 13 15
Wind_Direction
172 170 177 187 192 201 187 241 253 128 259 259 124 280 134 88 12 207 173 158 230 187 194 189 158 180 194 253 295 306 288 259 291 307 25 25 318 331 342 342 343 331 325 320 315 318 322 325 331 334 327 322 329 330 331 333 335 339 342 345 346 346 344 342 340 337 337 335 336 334 333 331 331 330 327 326 324 322 319 317 317 316 313 309 304 304 303 296 289 284 284 285 279 271 270 268 269
171 170 178 189 199 217 220 259 267 179 239 226 143 326 81 138 205 226 183 180 72 139 175 178 176 201 230 262 281 287 267 239 255 267 275 301 314 330 338 345 343 330 323 317 312 315 319 323 332 332 326 325 331 328 330 333 336 341 344 346 345 345 344 343 341 338 338 337 337 335 333 330 330 329 326 325 324 322 320 321 320 317 314 313 310 308 307 302 294 288 286 287 283 273 270 269 265
172 170 175 184 205 223 218 244 261 245 233 219 123 106 122 188 199 95 101 129 110 150 169 172 194 215 230 251 252 255 268 254 263 259 268 285 302 318 337 349 336 333 322 318 317 316 320 324 331 330 328 330 332 331 333 334 337 343 345 347 346 345 345 344 342 339 339 339 338 335 334 332 332 329 328 326 325 324 323 324 322 321 319 317 314 308 305 303 298 294 293 292 290 281 271 269 265
173 172 173 181 208 211 204 242 269 258 239 213 98 120 184 229 94 95 107 125 143 160 168 175 213 232 223 241 250 249 263 273 271 253 251 249 234 297 339 351 337 336 326 325 324 321 325 326 330 331 332 332 334 335 335 336 339 344 347 348 348 347 347 346 344 343 342 341 338 337 336 336 334 331 330 328 327 328 327 326 325 325 323 321 319 314 306 303 301 299 301 297 295 295 280 271 267
171 175 183 198 226 201 136 253 256 247 248 95 65 123 187 207 110 119 132 157 168 169 181 193 225 243 232 244 245 249 264 259 253 231 216 243 262 300 337 348 344 339 333 332 329 329 331 327 330 332 333 334 336 339 338 339 343 348 350 352 351 349 349 349 347 346 345 343 340 340 340 339 336 333 332 331 331 332 331 329 327 326 326 324 322 321 316 311 310 305 303 301 296 300 295 280 273
168 175 191 208 212 146 183 216 213 234 41 1 298 106 151 161 140 136 142 165 183 190 200 210 247 266 246 245 239 241 252 252 249 246 242 252 273 302 326 344 348 343 339 336 335 336 334 331 332 334 333 336 340 341 341 343 349 353 355 357 354 353 353 353 351 349 348 344 343 343 342 341 337 336 335 334 335 336 335 331 329 328 328 325 320 321 318 312 308 304 301 300 297 295 296 289 283
167 166 180 190 144 115 247 241 237 235 69 343 333 91 115 137 150 145 156 177 190 204 214 215 242 269 256 251 251 252 251 253 255 260 258 256 273 296 320 339 346 343 339 338 338 337 336 334 334 335 334 338 342 343 345 349 355 358 1 0 357 357 358 355 353 351 349 345 344 343 343 342 339 338 338 337 339 339 337 334 332 329 328 327 323 318 313 309 305 304 300 295 294 292 293 289 286
167 162 176 197 150 348 252 247 254 257 62 324 313 94 96 127 159 164 176 191 189 196 217 216 223 251 264 251 258 269 260 259 253 252 252 255 265 287 318 333 342 338 332 336 333 334 335 336 336 334 336 340 344 347 351 355 0 3 3 2 360 1 1 358 355 352 348 345 344 343 343 343 342 341 339 340 341 340 338 336 334 331 330 331 327 319 310 309 306 300 297 293 291 289 289 286 283
168 175 188 212 231 234 226 248 253 262 229 206 236 192 127 149 164 177 186 195 212 191 210 210 207 227 318 268 259 283 273 265 255 247 244 248 255 282 318 328 336 328 322 330 329 332 333 334 334 333 339 343 348 354 358 1 3 4 3 2 2 4 3 359 356 351 348 345 343 343 343 344 344 342 341 341 341 341 340 338 337 336 337 334 328 323 314 309 306 298 293 290 286 287 288 283 278
172 190 152 168 227 229 231 235 216 224 207 196 241 204 172 167 168 191 199 201 207 193 212 205 210 238 294 291 268 286 265 250 242 238 236 237 246 281 316 326 330 321 316 327 328 334 333 332 334 336 344 347 354 2 3 3 2 2 1 2 3 5 4 1 356 350 347 345 343 343 345 346 346 344 342 342 343 343 342 340 340 341 344 339 328 326 320 311 308 301 296 291 287 288 287 282 276
180 173 150 197 221 235 238 228 224 214 168 237 252 202 180 165 164 192 209 225 209 201 215 195 211 237 256 282 261 262 257 231 221 224 226 228 245 289 316 328 330 323 321 329 333 336 332 333 336 342 348 352 2 6 2 0 360 359 359 2 4 5 4 1 356 351 348 345 343 344 346 347 347 346 343 343 345 345 343 342 344 346 346 341 331 327 321 311 307 306 302 297 293 289 281 278 274
193 125 175 232 229 252 266 262 268 282 253 216 196 170 179 165 165 198 204 215 202 208 221 205 211 219 224 260 232 241 274 231 225 229 226 228 247 287 315 331 333 331 330 331 336 334 331 335 339 347 352 357 6 4 357 355 356 356 357 1 5 6 4 1 357 352 349 346 344 346 348 348 348 347 344 345 347 348 349 348 349 352 350 344 337 329 320 309 306 307 305 304 300 290 279 276 269
210 141 199 224 249 296 7 286 290 293 267 188 91 148 170 166 185 207 193 203 196 204 225 218 222 232 245 259 235 239 260 233 243 247 237 235 237 273 320 330 333 332 333 330 331 330 330 335 343 352 354 359 4 358 351 351 353 354 355 1 5 6 3 1 358 354 351 348 347 348 350 348 349 349 346 347 349 352 355 355 354 353 351 347 342 334 324 315 311 310 309 310 304 293 283 277 269
199 155 194 187 193 300 218 273 275 268 254 115 73 156 167 170 209 208 182 203 205 207 222 219 216 236 257 247 241 218 207 251 288 255 236 228 223 269 319 327 331 326 328 328 328 328 330 337 349 354 352 357 359 352 349 350 352 352 355 0 4 6 4 1 360 357 353 350 349 350 350 348 350 350 347 349 352 355 358 1 357 352 352 350 345 337 326 318 315 313 313 315 308 299 288 275 266
185 147 99 141 166 226 214 253 348 263 227 104 127 160 173 191 211 205 210 223 225 220 225 218 206 213 241 219 169 179 198 294 332 286 243 234 253 282 311 322 323 320 321 323 326 329 330 339 352 354 351 356 356 352 351 350 351 352 354 360 4 6 4 2 2 360 355 353 351 350 351 349 350 350 349 350 354 356 360 5 359 353 356 356 353 347 335 325 322 315 314 318 312 303 290 268 253
173 140 91 210 202 220 198 191 185 252 93 97 151 160 178 213 210 204 217 226 247 235 227 221 211 217 232 229 210 197 225 290 299 297 279 269 285 283 296 305 309 310 309 315 322 327 330 342 354 355 355 356 355 354 353 351 351 351 354 358 2 4 3 3 4 2 358 356 353 352 352 350 350 352 351 351 355 357 0 5 0 356 357 356 357 354 345 335 326 318 320 321 312 306 305 279 240
158 146 221 224 213 209 188 181 182 246 86 117 161 173 182 210 213 219 231 229 240 244 233 231 228 235 242 243 245 241 255 274 282 288 276 274 278 275 281 286 295 295 299 307 316 324 331 344 356 355 356 355 355 355 353 353 351 350 354 357 0 2 2 4 5 4 1 359 356 354 353 352 352 354 354 352 355 357 358 2 2 1 358 355 359 1 358 352 336 320 324 320 313 330 341 347 226
157 180 227 222 209 197 189 187 189 340 61 136 166 187 197 196 199 220 247 235 235 247 246 245 244 247 250 251 252 254 259 264 271 273 268 267 266 269 269 272 280 280 289 300 311 326 334 344 354 351 353 356 355 355 354 352 349 350 353 355 358 359 359 4 5 4 3 2 360 357 355 355 355 355 355 354 354 357 354 356 2 1 357 360 7 7 5 2 358 341 328 300 312 357 11 27 50
134 132 232 228 189 99 97 141 200 192 78 114 161 188 205 215 179 206 241 227 223 245 251 247 250 254 256 255 253 253 255 256 258 258 258 257 258 261 252 258 268 269 277 290 306 326 333 339 342 344 351 355 355 354 352 350 348 349 351 354 356 355 357 2 3 3 3 3 1 360 359 357 356 356 356 355 353 357 354 354 1 1 2 12 13 8 5 3 8 13 354 299 5 23 39 51 53
112 203 235 237 59 44 154 204 245 197 113 93 152 189 211 224 200 201 246 250 230 239 244 235 245 255 253 251 249 247 245 242 243 244 247 249 250 249 239 241 248 260 270 280 298 317 326 326 327 336 346 352 354 351 349 346 344 347 350 352 354 352 354 360 1 2 3 4 2 1 1 358 357 356 357 357 354 357 357 356 1 2 7 18 16 9 10 9 11 20 21 33 60 38 47 66 116
158 215 263 43 56 355 177 202 227 211 215 130 151 181 216 227 218 216 240 266 242 237 244 231 234 241 231 238 240 234 229 224 226 231 238 239 241 238 231 230 233 248 260 273 290 305 314 311 313 324 333 345 349 345 344 340 340 347 351 351 352 351 352 357 359 0 1 3 2 1 1 0 360 358 358 359 356 357 359 360 2 5 10 19 21 14 15 17 16 29 40 40 44 38 43 54 120
161 182 15 66 119 308 172 203 234 209 204 171 164 187 227 224 223 226 221 242 249 232 232 211 208 214 215 231 229 224 217 212 215 223 230 230 234 230 222 224 232 243 250 263 281 293 301 302 305 311 321 336 341 336 336 336 338 347 352 351 351 351 351 355 357 358 360 0 1 360 1 2 3 1 359 1 359 359 1 3 4 7 12 21 28 21 21 23 24 42 55 55 59 55 60 73 103
230 150 72 123 143 307 226 214 232 186 182 181 179 225 245 234 243 239 228 236 243 237 226 205 213 230 238 239 227 224 218 212 218 223 226 225 223 219 217 223 232 242 250 255 270 286 290 294 298 301 312 326 331 326 330 334 340 348 353 352 352 352 351 353 354 356 358 358 359 359 0 2 3 3 2 2 2 2 3 4 6 7 14 24 32 27 29 33 33 44 56 61 66 69 81 97 109
265 186 123 155 163 266 251 208 204 154 179 203 225 260 242 241 266 264 247 248 248 248 249 244 242 247 250 244 230 225 220 217 221 222 220 219 213 212 216 223 234 243 246 251 264 274 279 291 294 295 307 319 320 317 326 335 340 347 352 352 353 352 352 353 352 355 358 358 358 359 0 1 2 4 4 4 4 5 4 5 8 9 14 26 34 31 34 43 40 38 46 54 59 70 88 108 113
261 201 140 151 178 239 221 175 186 121 243 260 257 265 258 258 273 275 265 264 262 255 252 252 251 252 252 247 239 232 226 222 222 224 222 218 214 213 218 224 235 241 237 243 253 262 274 287 286 292 305 312 311 312 325 336 342 346 348 350 352 352 352 354 352 354 359 358 357 359 1 360 0 3 5 7 6 6 6 7 9 10 14 24 35 35 36 44 43 35 38 49 59 66 69 75 84
179 130 137 150 187 220 220 186 26 15 311 310 270 267 270 272 279 270 267 269 268 259 250 249 248 250 254 250 245 239 232 226 223 228 228 223 217 209 218 225 230 236 232 235 245 261 279 286 286 297 308 308 307 312 326 335 341 341 342 346 349 351 353 354 353 355 358 359 358 359 0 360 359 2 5 8 8 8 7 8 10 12 14 21 33 38 34 39 44 38 34 41 55 62 52 48 54
112 121 122 123 171 204 274 226 354 332 291 276 267 278 276 276 284 261 264 266 259 249 229 229 237 256 263 251 243 238 233 227 221 226 228 228 216 201 218 228 231 233 233 235 249 271 285 294 296 303 305 304 306 315 328 333 336 335 338 343 346 350 353 354 354 355 357 359 360 359 1 1 359 1 4 8 10 10 9 9 11 13 15 18 27 39 36 37 44 44 37 34 45 57 52 47 46
115 121 122 101 184 214 307 253 358 341 283 246 266 279 265 196 229 245 251 252 239 226 219 230 253 270 266 247 234 229 228 223 220 224 225 225 212 203 218 230 237 239 240 242 253 272 283 297 302 305 304 301 307 318 327 329 330 331 336 341 345 350 351 352 353 354 356 359 1 2 4 4 2 1 4 8 11 11 10 10 11 13 16 17 23 35 39 39 43 48 47 38 40 51 58 63 53
121 119 168 195 214 205 31 20 356 352 274 279 289 276 245 188 222 242 245 244 242 244 242 246 256 258 244 230 220 218 219 215 218 223 219 214 209 209 216 227 239 242 245 247 251 265 276 293 299 303 301 300 308 317 324 325 326 330 336 341 345 350 349 349 350 352 354 358 1 4 8 9 7 5 5 7 10 13 12 11 12 13 16 18 23 32 40 40 42 48 53 48 44 49 57 67 74
131 122 271 238 217 210 39 25 337 323 239 325 304 279 244 188 221 234 235 240 242 245 245 244 236 224 219 216 210 211 213 212 216 221 214 207 209 215 216 223 236 240 245 245 247 259 271 284 294 298 297 302 307 312 319 321 327 333 339 344 349 350 348 347 347 350 352 356 359 3 8 12 13 12 10 8 9 11 13 12 12 14 16 19 22 28 35 36 38 44 48 55 53 48 49 59 71
121 267 233 262 251 187 67 33 330 276 180 41 257 258 271 210 211 219 231 241 237 238 235 229 215 205 211 209 209 211 211 215 217 219 214 208 214 221 221 226 234 240 242 241 245 255 267 276 286 288 291 298 299 304 311 318 332 340 345 349 352 350 347 348 349 350 351 351 355 1 6 11 15 17 16 13 10 8 10 13 13 14 15 18 22 25 28 31 33 33 34 49 57 52 47 53 60
32 259 203 159 254 202 94 69 1 321 179 304 230 255 278 286 207 206 224 227 217 236 233 223 216 210 212 209 211 211 213 219 218 218 216 213 220 224 226 231 235 240 242 241 245 253 260 267 275 278 283 287 288 290 301 323 340 345 351 352 351 347 346 352 352 349 348 348 354 360 6 11 13 16 19 18 16 11 7 9 12 14 15 17 20 21 23 28 32 32 27 22 33 53 49 50 56
195 263 245 163 222 252 141 135 48 359 323 236 224 264 289 294 59 198 214 207 211 256 252 237 230 222 218 214 213 210 212 219 219 217 216 216 221 226 230 235 237 239 241 240 242 248 252 258 262 266 271 272 274 277 289 323 342 347 352 348 346 343 345 353 352 347 347 351 358 3 7 11 12 13 15 17 19 18 11 6 8 13 16 17 18 18 19 21 25 30 30 25 24 26 29 23 342
186 227 256 234 223 250 260 157 89 345 260 227 216 243 265 263 254 223 210 212 242 270 266 260 254 242 232 223 219 215 211 216 219 217 214 215 220 225 231 235 236 235 236 236 237 241 245 249 252 254 259 259 263 269 281 312 327 340 343 340 339 336 342 348 346 344 348 353 359 3 5 8 10 11 12 14 17 20 20 12 5 7 14 18 19 18 17 16 19 23 25 27 30 28 25 17 341
194 204 223 246 221 236 272 213 46 349 243 240 235 239 260 264 260 249 232 239 257 264 263 262 258 249 241 233 228 222 216 212 215 217 213 213 217 223 230 231 229 226 227 228 229 234 237 240 243 243 246 252 257 265 279 299 304 323 330 330 329 328 334 340 341 342 347 353 357 0 3 4 5 8 10 12 13 17 21 20 13 6 7 13 18 20 17 15 17 19 22 21 23 27 25 20 12
281 194 233 261 238 241 264 92 42 1 272 250 245 249 267 271 268 261 244 243 254 254 254 257 254 248 240 236 232 226 222 212 208 214 214 211 215 220 225 226 220 215 216 219 222 225 230 235 236 237 240 245 249 258 273 286 298 314 315 311 311 314 321 328 335 341 347 353 358 2 4 3 2 4 6 10 12 15 17 20 20 15 9 6 7 12 16 16 16 17 20 18 17 20 19 20 21
2 126 214 237 259 266 124 92 69 28 282 256 240 264 274 270 270 268 247 232 246 245 242 247 250 247 239 234 232 226 222 214 207 210 211 210 213 217 220 217 209 206 206 209 213 216 224 231 229 228 231 232 234 242 277 309 323 300 271 271 277 291 307 319 332 343 350 355 1 7 7 5 4 3 3 6 11 14 16 17 19 20 17 11 6 4 7 11 13 11 11 13 14 13 11 16 21
12 179 235 223 243 261 102 80 92 87 298 268 247 288 276 267 267 267 247 222 240 242 233 237 242 244 239 231 227 222 216 210 206 206 206 206 210 213 215 210 202 201 202 203 208 212 219 225 221 216 212 204 203 196 15 10 172 208 215 233 252 274 299 318 335 345 353 360 5 7 6 6 5 4 4 6 9 12 16 18 18 19 19 20 16 8 4 5 7 8 7 7 7 6 6 6 9
256 173 248 248 239 271 227 103 115 154 292 296 343 309 282 275 272 270 257 237 242 240 230 232 234 237 235 224 215 209 205 202 201 201 201 202 205 207 207 204 200 200 201 203 206 209 212 216 213 205 196 186 185 183 2 338 261 204 206 222 246 278 308 326 339 348 356 1 2 1 1 3 3 6 7 6 8 10 13 17 19 19 18 20 21 17 11 6 5 5 7 8 6 3 2 1 1
233 207 247 256 43 293 250 101 93 213 260 295 308 295 278 278 273 266 257 242 248 241 232 236 235 230 222 212 203 197 197 196 197 197 197 198 199 201 203 200 200 201 201 203 204 205 205 207 208 202 199 199 206 257 290 299 285 241 220 218 240 297 324 335 342 349 353 352 348 348 351 354 359 4 5 6 7 8 10 13 16 18 18 17 18 19 18 15 12 10 8 8 7 4 1 1 1
215 225 247 262 116 230 261 344 319 246 180 281 297 283 260 275 280 255 155 220 257 241 237 239 232 220 204 197 194 193 195 195 195 194 193 195 196 198 201 199 199 201 200 202 202 201 202 204 210 210 214 225 241 268 282 282 274 252 231 213 198 286 316 328 337 335 331 329 329 334 341 348 355 357 357 0 2 4 6 8 11 14 16 16 15 14 14 16 18 18 16 12 9 6 2 1 360
221 214 234 322 102 205 280 319 317 271 192 149 320 298 272 109 269 252 146 237 246 211 226 230 217 210 198 188 189 192 195 194 192 193 192 194 195 195 198 197 200 202 200 203 203 204 207 210 218 226 234 246 258 269 273 267 255 236 218 209 213 253 288 289 288 293 299 310 322 333 343 348 350 350 351 352 353 357 0 2 5 6 9 11 12 11 10 11 13 17 21 21 16 10 4 0 356
254 173 133 120 134 164 302 318 303 281 287 86 340 294 285 287 258 233 28 284 253 217 223 215 197 203 199 190 190 192 193 191 189 190 192 193 194 194 196 197 202 204 202 205 208 211 217 221 229 237 246 252 258 263 261 252 235 214 208 211 222 228 233 237 239 263 293 318 336 348 352 352 352 351 350 350 350 353 354 357 359 359 1 2 5 7 7 7 9 11 15 20 23 20 13 6 359
293 109 145 145 153 178 32 301 262 288 320 281 96 315 279 281 278 97 4 289 257 234 220 205 191 200 199 192 192 192 192 190 188 189 191 193 194 195 196 199 204 207 207 209 214 219 225 231 238 243 247 249 251 252 242 228 209 199 208 216 219 221 222 226 235 271 320 349 358 360 0 2 4 3 2 2 0 358 356 357 357 358 358 357 359 1 2 5 6 6 8 11 15 19 22 16 10
51 120 142 121 103 88 123 260 243 284 305 236 120 11 266 263 269 97 19 278 255 237 214 201 192 193 195 192 191 193 192 190 189 190 192 194 196 197 199 203 207 210 212 215 219 226 232 237 240 240 241 240 239 234 218 203 195 198 207 213 215 217 217 221 226 326 21 23 15 9 10 11 13 14 16 16 14 12 10 6 4 2 0 359 360 359 1 3 4 5 5 5 7 9 15 18 17
119 139 112 96 96 80 124 273 239 197 266 234 113 356 274 269 273 183 101 267 254 237 207 195 190 190 193 189 188 191 190 189 190 191 193 195 197 199 202 206 210 214 216 220 225 230 234 236 235 233 231 230 223 211 200 191 190 195 200 205 214 217 209 191 139 83 60 48 35 30 28 24 24 27 28 28 28 27 23 17 13 9 7 7 7 6 6 4 5 7 8 9 9 7 8 11 13
138 158 153 128 135 96 179 265 261 228 244 184 91 327 282 285 282 231 205 248 257 233 199 192 193 195 193 188 186 187 187 188 190 191 193 196 198 202 205 209 213 217 219 223 227 230 231 229 226 225 222 215 205 194 187 186 190 193 197 202 208 207 184 141 123 108 92 82 70 59 49 43 43 42 39 38 36 33 29 24 21 18 15 14 13 12 12 11 11 11 12 14 14 15 16 15 14
202 203 245 257 191 174 202 181 202 244 236 95 83 314 266 251 256 239 198 216 236 236 219 198 191 192 191 188 187 186 186 188 189 191 193 196 200 203 207 211 215 218 221 225 228 227 224 219 216 215 210 199 192 187 183 186 192 194 196 199 196 182 152 135 135 123 109 96 81 71 63 58 55 50 45 42 40 36 33 30 28 25 22 21 20 19 17 18 19 16 16 18 19 23 27 27 27
247 236 227 268 269 220 240 205 199 251 266 81 97 278 257 249 254 260 254 243 232 236 252 230 194 184 186 187 187 187 186 188 190 193 196 199 204 206 208 212 216 220 224 225 224 218 212 208 204 200 197 191 187 186 185 187 191 191 191 189 180 164 148 145 141 124 109 95 83 78 77 74 67 61 53 47 44 39 34 32 29 26 26 27 26 26 25 24 24 23 22 22 23 27 30 33 37
200 230 247 268 288 293 263 252 267 277 58 91 112 272 264 264 266 258 258 275 290 255 262 254 214 187 186 186 187 188 188 190 193 196 200 203 206 208 210 214 217 222 223 218 212 204 199 197 190 188 192 191 187 186 185 187 190 189 186 180 171 159 152 150 137 119 103 92 89 88 87 82 71 62 54 48 45 39 34 34 31 29 30 31 30 30 30 30 29 29 28 27 28 31 33 35 37
171 356 332 267 267 277 272 277 281 297 344 116 163 246 244 258 324 224 261 315 312 282 262 243 215 193 187 185 185 187 188 191 195 198 201 204 206 208 211 216 219 220 214 206 198 192 190 188 183 186 195 193 188 187 186 188 192 189 181 174 167 159 154 148 132 115 104 96 93 89 81 71 61 54 50 47 44 39 37 35 33 33 34 33 33 32 32 33 33 31 31 32 33 35 34 34 34
140 68 282 251 279 294 283 357 345 335 312 245 204 244 243 262 285 255 277 282 267 267 247 220 204 189 184 183 184 187 189 191 194 196 199 202 205 209 213 216 215 209 201 193 190 187 186 187 186 188 197 197 191 189 190 191 193 189 180 173 167 160 154 145 133 119 110 102 94 85 72 61 54 49 47 46 43 39 37 36 34 33 33 33 32 31 31 33 32 31 31 30 31 34 32 30 31
148 191 205 217 348 356 133 114 82 142 267 250 201 261 271 290 286 286 65 256 218 181 189 194 191 182 182 185 186 187 189 191 193 196 200 204 208 211 213 212 206 198 193 189 188 187 187 191 192 193 197 198 194 192 193 194 193 189 181 174 168 162 157 149 139 127 116 109 96 81 68 59 53 48 45 43 41 38 34 34 33 32 32 30 27 27 28 29 29 29 30 29 30 31 29 27 28
219 209 96 88 267 307 7 260 237 200 255 257 197 266 288 318 296 337 55 234 215 194 183 182 186 186 189 192 190 189 191 193 195 198 203 207 210 211 209 204 199 194 192 190 190 190 191 193 196 198 200 200 197 196 196 196 194 189 183 177 172 168 164 157 147 136 126 113 98 84 73 63 55 48 44 39 35 30 27 27 27 27 29 25 23 23 22 23 25 24 26 28 29 30 27 24 23
277 302 20 322 238 218 148 242 264 256 273 277 255 275 275 229 243 286 287 226 217 201 183 188 196 196 199 197 193 192 192 194 197 199 203 207 208 208 203 198 196 194 193 193 194 195 195 196 198 200 202 202 201 200 199 198 194 190 186 181 177 174 170 163 155 146 136 124 110 101 92 75 62 54 43 33 25 17 14 16 17 20 22 20 18 17 15 16 17 17 19 20 22 23 21 19 18
222 259 223 255 293 295 228 138 290 269 279 292 300 305 258 214 214 247 252 241 214 192 189 202 204 200 201 199 196 195 195 197 199 201 204 206 205 204 201 198 196 196 197 197 198 199 198 199 200 201 202 203 203 203 202 199 195 192 190 186 182 179 176 171 167 158 152 150 143 135 129 111 87 70 43 20 7 0 0 3 7 11 13 13 13 11 10 9 8 9 10 11 13 13 11 11 11
182 202 187 181 186 323 266 223 64 275 269 269 282 285 262 218 182 218 238 256 219 201 202 208 204 202 204 203 201 200 199 200 203 204 205 205 204 202 199 199 198 198 200 201 202 203 202 202 203 203 204 206 206 205 203 201 198 194 193 191 187 185 183 182 178 173 172 174 168 161 157 146 131 110 39 353 344 346 350 354 359 2 2 3 5 5 6 8 7 7 7 7 8 7 5 5 4
221 210 198 192 173 154 226 231 140 345 272 243 259 284 271 234 159 216 234 263 247 231 231 221 207 205 208 208 206 205 205 205 205 207 206 205 204 202 200 200 201 202 203 204 204 205 205 205 205 205 206 207 208 207 205 203 200 198 196 195 193 192 191 189 186 184 187 187 180 175 170 164 169 183 197 305 327 337 344 352 353 352 352 353 354 356 359 3 6 6 6 5 3 2 0 359 358